| time (UTC) | temp C | wind direction | speed KPH | gust KPH | rain 1hr cm | rain 24hr cm | rain mn cm | humidity % | barometer mb |
| 20260505023051 | 14 | 202 | 3.2 | 0.0 | 0.00 | 0.00 | 0.00 | 53 | 1007.8 |
| 20260505021551 | 15 | 200 | 1.6 | 0.0 | 0.00 | 0.00 | 0.00 | 52 | 1008.2 |
| 20260505020020 | 15 | 198 | 4.8 | 0.0 | 0.00 | 0.00 | 0.00 | 51 | 1008.1 |
| 20260505014523 | 15 | 198 | 3.2 | 0.0 | 0.00 | 0.00 | 0.00 | 50 | 1007.8 |
| 20260505013049 | 15 | 201 | 4.8 | 0.0 | 0.00 | 0.00 | 0.00 | 49 | 1007.7 |
| 20260505011549 | 16 | 238 | 3.2 | 0.0 | 0.00 | 0.00 | 0.00 | 48 | 1007.2 |
| 20260505010105 | 16 | 175 | 4.8 | 0.0 | 0.00 | 0.00 | 0.00 | 48 | 1007.2 |
| 20260505004600 | 16 | 196 | 8.0 | 0.0 | 0.00 | 0.00 | 0.00 | 47 | 1006.9 |
| 20260505003050 | 16 | 203 | 6.4 | 0.0 | 0.00 | 0.00 | 0.00 | 46 | 1006.6 |
| 20260505001545 | 17 | 206 | 4.8 | 0.0 | 0.00 | 0.00 | 0.00 | 45 | 1006.1 |
| 20260505000041 | 17 | 209 | 8.0 | 0.0 | 0.00 | 0.00 | 0.00 | 44 | 1005.9 |
| 20260504234542 | 18 | 180 | 8.0 | 0.0 | 0.00 | 0.00 | 0.00 | 42 | 1005.5 |
| 20260504233040 | 18 | 209 | 8.0 | 0.0 | 0.00 | 0.00 | 0.00 | 40 | 1005.1 |
| 20260504231554 | 20 | 204 | 8.0 | 0.0 | 0.00 | 0.00 | 0.00 | 38 | 1004.9 |
| 20260504230009 | 21 | 216 | 6.4 | 0.0 | 0.00 | 0.00 | 0.00 | 35 | 1004.7 |
| 20260504224508 | 21 | 192 | 1.6 | 0.0 | 0.00 | 0.00 | 0.00 | 33 | 1004.3 |
| 20260504223006 | 22 | 201 | 4.8 | 0.0 | 0.00 | 0.00 | 0.00 | 31 | 1004.1 |
| 20260504221505 | 22 | 181 | 3.2 | 0.0 | 0.00 | 0.00 | 0.00 | 31 | 1004.2 |
| 20260504220004 | 22 | 292 | 3.2 | 0.0 | 0.00 | 0.00 | 0.00 | 31 | 1004.5 |
| 20260504214504 | 22 | 233 | 3.2 | 0.0 | 0.00 | 0.00 | 0.00 | 30 | 1004.4 |
| 20260504213039 | 22 | 231 | 4.8 | 0.0 | 0.00 | 0.00 | 0.00 | 30 | 1004.5 |
| 20260504211535 | 22 | 298 | 6.4 | 0.0 | 0.00 | 0.00 | 0.00 | 30 | 1004.3 |
| 20260504210030 | 22 | 234 | 3.2 | 0.0 | 0.00 | 0.00 | 0.00 | 31 | 1004.2 |
| 20260504204533 | 22 | 313 | 3.2 | 0.0 | 0.00 | 0.00 | 0.00 | 31 | 1004.5 |
| 20260504203028 | 22 | 205 | 4.8 | 0.0 | 0.00 | 0.00 | 0.00 | 29 | 1004.4 |
| 20260504201529 | 23 | 239 | 4.8 | 0.0 | 0.00 | 0.00 | 0.00 | 29 | 1004.5 |
| 20260504200028 | 23 | 304 | 4.8 | 0.0 | 0.00 | 0.00 | 0.00 | 28 | 1004.3 |
| 20260504194525 | 23 | 200 | 9.7 | 0.0 | 0.00 | 0.00 | 0.00 | 28 | 1004.5 |
| 20260504193023 | 23 | 284 | 6.4 | 0.0 | 0.00 | 0.00 | 0.00 | 27 | 1004.4 |
| 20260504191524 | 23 | 259 | 4.8 | 0.0 | 0.00 | 0.00 | 0.00 | 27 | 1004.5 |
| 20260504190020 | 22 | 212 | 9.7 | 0.0 | 0.00 | 0.00 | 0.00 | 27 | 1004.6 |
| 20260504184529 | 22 | 232 | 8.0 | 0.0 | 0.00 | 0.00 | 0.00 | 28 | 1005.1 |
| 20260504183013 | 22 | 289 | 12.9 | 0.0 | 0.00 | 0.00 | 0.00 | 29 | 1005.2 |
| 20260504181512 | 22 | 183 | 6.4 | 0.0 | 0.00 | 0.00 | 0.00 | 28 | 1005.0 |
| 20260504180009 | 22 | 240 | 8.0 | 0.0 | 0.00 | 0.00 | 0.00 | 29 | 1005.0 |
| 20260504174538 | 22 | 259 | 9.7 | 0.0 | 0.00 | 0.00 | 0.00 | 29 | 1005.3 |
| 20260504173038 | 22 | 233 | 8.0 | 0.0 | 0.00 | 0.00 | 0.00 | 28 | 1005.6 |
| 20260504171531 | 22 | 216 | 8.0 | 0.0 | 0.00 | 0.00 | 0.00 | 30 | 1005.4 |
| 20260504081539 | 6 | 282 | 0.0 | 0.0 | 0.00 | 0.00 | 0.00 | 59 | 1008.4 |
| 20260504044505 | 2 | 282 | 0.0 | 0.0 | 0.00 | 0.00 | 0.00 | 67 | 1008.4 |
| 20260504043007 | 2 | 282 | 0.0 | 0.0 | 0.00 | 0.00 | 0.00 | 68 | 1008.2 |
| 20260504041501 | 2 | 282 | 0.0 | 0.0 | 0.00 | 0.00 | 0.00 | 67 | 1008.3 |
| 20260504040029 | 2 | 282 | 0.0 | 0.0 | 0.00 | 0.00 | 0.00 | 68 | 1008.2 |
| 20260504034528 | 3 | 282 | 0.0 | 0.0 | 0.00 | 0.00 | 0.03 | 66 | 1008.1 |
| 20260504033023 | 3 | 282 | 0.0 | 0.0 | 0.00 | 0.00 | 0.03 | 66 | 1008.0 |
| 20260504031522 | 3 | 282 | 0.0 | 0.0 | 0.00 | 0.00 | 0.03 | 65 | 1007.9 |
| 20260504030023 | 3 | 282 | 0.0 | 0.0 | 0.00 | 0.00 | 0.03 | 65 | 1007.9 |
| 20260504024524 | 3 | 282 | 0.0 | 0.0 | 0.00 | 0.00 | 0.03 | 64 | 1008.0 |